TVF8231 DTTA-LFPO

Flight info

Callsign TVF8231
Flight time N/A
Altitude 38000
Route TOBIB3C TOBIB UA725 OSMAR DCT PIRIX DCT CAR DCT GIGGI DCT UPDUT DCT CORSI DCT OMEDA DCT MERLU DCT PIGOS DCT BARSO DCT OKTET DCT GIPNO DCT BULOL DCT IDAVO DCT ARDOL
Aircraft A20N/M-SDE3FGHIRWY/LB1

Departure

Time 2026-04-27 17:44
Airport Tunis Carthage International Airport (DTTA)

Arrival

Time N/A
Airport Paris-Orly Airport (LFPO)
Time Latitude Longitude Altitude Speed Heading
2026-04-27 17:16 36.84875 10.21950 29 ft 0 kts 282°
2026-04-27 17:33 36.84874 10.21953 30 ft 1 kts 282°
2026-04-27 17:33 36.84870 10.21974 30 ft 3 kts 282°
2026-04-27 17:33 36.84867 10.21997 29 ft 2 kts 282°
2026-04-27 17:33 36.84861 10.22019 30 ft 3 kts 306°
2026-04-27 17:34 36.84848 10.22033 30 ft 3 kts 349°
2026-04-27 17:34 36.84832 10.22034 30 ft 1 kts
2026-04-27 17:34 36.84827 10.22033 30 ft 0 kts
2026-04-27 17:38 36.84847 10.22037 30 ft 9 kts 12°
2026-04-27 17:38 36.84893 10.22081 30 ft 8 kts 62°
2026-04-27 17:38 36.84895 10.22148 30 ft 9 kts 100°
2026-04-27 17:38 36.84881 10.22236 30 ft 11 kts 101°
2026-04-27 17:39 36.84872 10.22340 30 ft 12 kts 70°
2026-04-27 17:39 36.84948 10.22383 31 ft 12 kts 13°
2026-04-27 17:39 36.85009 10.22352 31 ft 10 kts 299°
2026-04-27 17:39 36.85042 10.22256 31 ft 15 kts 292°
2026-04-27 17:40 36.85081 10.22137 31 ft 14 kts 292°
2026-04-27 17:40 36.85118 10.22028 30 ft 13 kts 292°
2026-04-27 17:40 36.85160 10.21898 30 ft 18 kts 291°
2026-04-27 17:40 36.85192 10.21804 30 ft 17 kts 295°
2026-04-27 17:41 36.85251 10.21715 30 ft 12 kts 341°
2026-04-27 17:41 36.85321 10.21735 30 ft 6 kts 24°
2026-04-27 17:41 36.85323 10.21737 30 ft 0 kts 24°
2026-04-27 17:41 36.85335 10.21744 30 ft 6 kts 24°
2026-04-27 17:42 36.85373 10.21765 31 ft 5 kts 26°
2026-04-27 17:42 36.85407 10.21799 32 ft 7 kts 59°
2026-04-27 17:42 36.85399 10.21850 32 ft 0 kts 113°
2026-04-27 17:43 36.85328 10.22063 31 ft 63 kts 112°
2026-04-27 17:43 36.85075 10.22821 34 ft 124 kts 112°
2026-04-27 17:43 36.84683 10.24002 139 ft 160 kts 112°
2026-04-27 17:44 36.84276 10.25222 905 ft 149 kts 114°
2026-04-27 17:44 36.83866 10.26443 1475 ft 155 kts 112°
2026-04-27 17:44 36.83445 10.27718 2025 ft 166 kts 112°
2026-04-27 17:44 36.82971 10.29127 2332 ft 189 kts 113°
2026-04-27 17:45 36.82429 10.30743 2666 ft 214 kts 113°
2026-04-27 17:45 36.81824 10.32558 3115 ft 238 kts 112°
2026-04-27 17:45 36.81156 10.34562 3617 ft 260 kts 112°
2026-04-27 17:45 36.80452 10.36677 4417 ft 268 kts 112°
2026-04-27 17:46 36.79727 10.38854 5274 ft 274 kts 112°
2026-04-27 17:46 36.78988 10.41082 6129 ft 281 kts 112°
2026-04-27 17:46 36.78522 10.43457 6954 ft 287 kts 90°
2026-04-27 17:46 36.78918 10.45892 7770 ft 290 kts 64°
2026-04-27 17:47 36.80137 10.47885 8600 ft 292 kts 37°
2026-04-27 17:47 36.81307 10.48764 9161 ft 292 kts 19°
2026-04-27 17:47 36.83951 10.49105 10091 ft 292 kts 347°
2026-04-27 17:47 36.85993 10.48537 10499 ft 312 kts 343°
2026-04-27 17:48 36.88167 10.47853 10877 ft 330 kts 343°
2026-04-27 17:48 36.90415 10.47146 11574 ft 336 kts 343°
2026-04-27 17:48 36.92693 10.46447 12371 ft 338 kts 343°
2026-04-27 17:48 36.94993 10.45764 13173 ft 341 kts 343°
2026-04-27 17:49 36.97312 10.45097 13943 ft 343 kts 343°
2026-04-27 17:49 36.99596 10.44248 14593 ft 342 kts 332°
2026-04-27 17:49 37.01728 10.42905 15247 ft 345 kts 329°
2026-04-27 17:49 37.03876 10.41521 15861 ft 349 kts 329°
2026-04-27 17:50 37.06048 10.40116 16478 ft 354 kts 329°
2026-04-27 17:50 37.10473 10.37256 17727 ft 362 kts 329°
2026-04-27 17:50 37.12723 10.35798 18335 ft 366 kts 328°
2026-04-27 17:51 37.14992 10.34323 18864 ft 370 kts 328°
2026-04-27 17:51 37.17283 10.32831 19418 ft 372 kts 328°
2026-04-27 17:51 37.19588 10.31326 19984 ft 375 kts 328°
2026-04-27 17:51 37.21909 10.29813 20536 ft 377 kts 329°
2026-04-27 17:52 37.24248 10.28295 21088 ft 380 kts 329°
2026-04-27 17:52 37.26572 10.26790 21607 ft 382 kts 329°
2026-04-27 17:52 37.28943 10.25251 22132 ft 385 kts 329°
2026-04-27 17:52 37.31332 10.23696 22642 ft 388 kts 329°
2026-04-27 17:53 37.33737 10.22129 23130 ft 391 kts 329°
2026-04-27 17:53 37.36189 10.20528 23660 ft 393 kts 329°
2026-04-27 17:53 37.38585 10.18962 24075 ft 395 kts 329°
2026-04-27 17:53 37.41029 10.17361 24488 ft 397 kts 329°
2026-04-27 17:54 37.43484 10.15747 24900 ft 399 kts 329°
2026-04-27 17:54 37.45954 10.14126 25301 ft 401 kts 330°
2026-04-27 17:54 37.48439 10.12501 25688 ft 404 kts 330°
2026-04-27 17:54 37.50939 10.10867 26085 ft 406 kts 330°
2026-04-27 17:55 37.53452 10.09222 26462 ft 409 kts 330°
2026-04-27 17:55 37.55985 10.07563 26811 ft 412 kts 330°
2026-04-27 17:55 37.58534 10.05890 27174 ft 414 kts 330°
2026-04-27 17:55 37.61096 10.04204 27538 ft 417 kts 330°
2026-04-27 17:56 37.63672 10.02506 27912 ft 419 kts 330°
2026-04-27 17:56 37.66262 10.00797 28276 ft 421 kts 330°
2026-04-27 17:56 37.68866 9.99077 28638 ft 424 kts 330°
2026-04-27 17:56 37.71484 9.97346 28992 ft 426 kts 330°
2026-04-27 17:57 37.74123 9.95620 29338 ft 429 kts 333°
2026-04-27 17:57 37.76916 9.94278 29676 ft 433 kts 342°
2026-04-27 17:57 37.79850 9.93335 30001 ft 436 kts 343°
2026-04-27 17:57 37.82803 9.92401 30286 ft 438 kts 343°
2026-04-27 17:58 37.85767 9.91462 30577 ft 440 kts 343°
2026-04-27 17:58 37.88739 9.90519 30863 ft 441 kts 343°
2026-04-27 17:58 37.91719 9.89570 31147 ft 442 kts 343°
2026-04-27 17:58 37.94706 9.88616 31431 ft 443 kts 343°
2026-04-27 17:59 37.97689 9.87661 31835 ft 441 kts 343°
2026-04-27 17:59 38.00658 9.86708 32238 ft 439 kts 343°
2026-04-27 17:59 38.03613 9.85755 32656 ft 437 kts 343°
2026-04-27 17:59 38.06514 9.84818 33054 ft 435 kts 343°
2026-04-27 18:00 38.09443 9.83875 33476 ft 433 kts 343°
2026-04-27 18:00 38.12395 9.82928 33886 ft 431 kts 343°
2026-04-27 18:00 38.15248 9.82014 34278 ft 428 kts 343°
2026-04-27 18:00 38.18136 9.81089 34602 ft 427 kts 343°
2026-04-27 18:01 38.21019 9.80165 34887 ft 427 kts 342°
2026-04-27 18:01 38.23900 9.79235 35148 ft 427 kts 342°
2026-04-27 18:01 38.26785 9.78305 35406 ft 428 kts 343°
2026-04-27 18:01 38.29672 9.77377 35642 ft 428 kts 343°
2026-04-27 18:02 38.32562 9.76452 35890 ft 428 kts 343°
2026-04-27 18:02 38.35452 9.75528 36140 ft 428 kts 342°
2026-04-27 18:02 38.38342 9.74602 36367 ft 428 kts 342°
2026-04-27 18:02 38.41231 9.73673 36599 ft 428 kts 342°
2026-04-27 18:03 38.44113 9.72744 36825 ft 428 kts 342°
2026-04-27 18:03 38.47001 9.71811 37049 ft 428 kts 342°
2026-04-27 18:03 38.49889 9.70881 37279 ft 428 kts 342°
2026-04-27 18:03 38.52780 9.69951 37470 ft 429 kts 342°
2026-04-27 18:04 38.55673 9.69017 37673 ft 429 kts 342°
2026-04-27 18:04 38.58567 9.68079 37879 ft 429 kts 342°
2026-04-27 18:04 38.61462 9.67142 38060 ft 430 kts 342°
2026-04-27 18:04 38.64361 9.66207 38108 ft 430 kts 342°
2026-04-27 18:05 38.70154 9.64333 38106 ft 429 kts 342°
2026-04-27 18:05 38.75934 9.62458 38104 ft 429 kts 342°
2026-04-27 18:06 38.81719 9.60574 38110 ft 429 kts 342°
2026-04-27 18:06 38.87502 9.58683 38108 ft 429 kts 342°
2026-04-27 18:07 38.93248 9.56809 38108 ft 429 kts 342°
2026-04-27 18:07 38.99020 9.54883 38122 ft 429 kts 342°
2026-04-27 18:08 39.04795 9.52936 38120 ft 429 kts 342°
2026-04-27 18:08 39.10573 9.50987 38117 ft 429 kts 342°
2026-04-27 18:09 39.16379 9.49160 38119 ft 430 kts 344°
2026-04-27 18:09 39.22214 9.47476 38122 ft 430 kts 345°
2026-04-27 18:10 39.28059 9.45790 38115 ft 430 kts 345°
2026-04-27 18:10 39.33898 9.44066 38118 ft 430 kts 344°
2026-04-27 18:11 39.39732 9.42322 38131 ft 431 kts 344°
2026-04-27 18:11 39.45568 9.40575 38147 ft 431 kts 345°
2026-04-27 18:12 39.51405 9.38824 38140 ft 431 kts 345°
2026-04-27 18:12 39.57242 9.37076 38138 ft 431 kts 345°
2026-04-27 18:13 39.63079 9.35322 38126 ft 430 kts 345°
2026-04-27 18:13 39.68874 9.33581 38137 ft 430 kts 345°
2026-04-27 18:14 39.74700 9.31833 38139 ft 430 kts 345°
2026-04-27 18:14 39.80523 9.30079 38138 ft 429 kts 345°
2026-04-27 18:15 39.86342 9.28319 38130 ft 429 kts 345°
2026-04-27 18:15 39.92154 9.26556 38136 ft 429 kts 345°
2026-04-27 18:16 39.97969 9.24789 38132 ft 429 kts 345°
2026-04-27 18:16 40.03786 9.23024 38126 ft 429 kts 345°
2026-04-27 18:17 40.09607 9.21256 38127 ft 430 kts 345°
2026-04-27 18:17 40.15421 9.19484 38135 ft 429 kts 345°
2026-04-27 18:18 40.21242 9.17703 38133 ft 429 kts 345°
2026-04-27 18:18 40.27059 9.15923 38129 ft 429 kts 345°
2026-04-27 18:19 40.32866 9.14110 38128 ft 429 kts 345°
2026-04-27 18:19 40.38663 9.12283 38126 ft 428 kts 345°
2026-04-27 18:20 40.44463 9.10461 38126 ft 428 kts 345°
2026-04-27 18:20 40.50260 9.08638 38119 ft 428 kts 345°
2026-04-27 18:21 40.56014 9.06827 38132 ft 428 kts 345°
2026-04-27 18:21 40.61815 9.05004 38130 ft 428 kts 345°
2026-04-27 18:22 40.67610 9.03170 38126 ft 428 kts 345°
2026-04-27 18:22 40.73394 9.01338 38124 ft 428 kts 345°
2026-04-27 18:23 40.79179 8.99497 38131 ft 428 kts 345°
2026-04-27 18:23 40.84968 8.97653 38127 ft 428 kts 345°
2026-04-27 18:24 40.90758 8.95814 38126 ft 428 kts 345°
2026-04-27 18:24 40.96550 8.93971 38125 ft 428 kts 345°
2026-04-27 18:25 41.02331 8.92119 38134 ft 428 kts 345°
2026-04-27 18:25 41.08118 8.90271 38129 ft 427 kts 345°
2026-04-27 18:26 41.13901 8.88416 38127 ft 427 kts 345°
2026-04-27 18:26 41.19641 8.86573 38126 ft 427 kts 345°
2026-04-27 18:27 41.25421 8.84700 38128 ft 427 kts 344°
2026-04-27 18:27 41.31111 8.82418 38129 ft 427 kts 340°
2026-04-27 18:28 41.36721 8.79819 38128 ft 427 kts 339°
2026-04-27 18:28 41.42326 8.77212 38128 ft 427 kts 340°
2026-04-27 18:29 41.47957 8.74679 38132 ft 427 kts 340°
2026-04-27 18:29 41.53595 8.72184 38132 ft 427 kts 340°
2026-04-27 18:30 41.59218 8.69669 38127 ft 426 kts 340°
2026-04-27 18:30 41.64844 8.67142 38127 ft 426 kts 340°
2026-04-27 18:31 41.70466 8.64611 38130 ft 426 kts 340°
2026-04-27 18:31 41.76084 8.62080 38128 ft 426 kts 340°